Home   Weather   Belfast   Past weeks

Flag for United Kingdom Past Weather in Belfast, Northern Ireland, United Kingdom — Yesterday and Last 2 Weeks

Now
66 °F

Mild.


Feels Like: 66 °F
Forecast: 55 / 66 °F
Wind: 5 mph from North

Location: Belfast / Harbour

Current Time: Jul 17, 2018 at 4:32:52 pm

Latest Report: Jul 17, 2018 at 3:50 pm


Visibility: N/A

Pressure: 29.92 "Hg

Humidity: 52%

Dew Point: 48 °F

Location of BelfastLocation

Past Weather in Belfast — Graph

°F

Belfast Temperature Yesterday

Maximum temperature yesterday: 68 °F (at 2:50 pm)
Minimum temperature yesterday: 55 °F (at 5:50 am)
Average temperature yesterday: 62 °F

High & Low Weather Summary for the Past Weeks

 TemperatureHumidityPressure
High79 °F (Jul 14, 3:20 pm)100% (Jul 15, 8:50 am)30.42 "Hg (Jul 15, 8:50 am)
Low52 °F (Jul 6, 12:20 am)31% (Jul 3, 4:50 pm)29.86 "Hg (Jul 15, 5:20 pm)
Average63 °F72%30.13 "Hg
* Reported Jul 2 3:20 pm — Jul 17 3:20 pm, Belfast. Weather by CustomWeather, © 2018

Note: Actual official high and low records may vary slightly from our data, if they occured in-between our weather recording intervals... More about our weather records

Advertising

Belfast Weather History for the Previous 24 Hours

Scroll right to see more
 ConditionsComfort  
Time TempWeatherWind HumidityBarometerVisibility
3:20 pm
Tue, Jul 17
64 °FMild.6 mph56%29.92 "HgN/A
2:50 pm66 °FMild.7 mph56%29.92 "HgN/A
2:20 pm66 °FMild.8 mph49%29.92 "HgN/A
1:50 pm66 °FMild.8 mph49%29.92 "HgN/A
12:50 pm64 °FMild.5 mph49%29.95 "HgN/A
12:20 pm66 °FScattered clouds.2 mph46%29.95 "HgN/A
11:50 am63 °FPartly sunny.6 mph59%29.95 "HgN/A
11:20 am63 °FScattered clouds.3 mph59%29.95 "HgN/A
10:50 am61 °FBroken clouds.7 mph63%29.95 "HgN/A
10:20 am63 °FPassing clouds.5 mph59%29.95 "HgN/A
9:50 am61 °FCool.7 mph68%29.95 "HgN/A
9:20 am63 °FMild.9 mph64%29.95 "HgN/A
8:50 am59 °FCool.7 mph72%29.95 "HgN/A
8:20 am59 °FCool.7 mph77%29.95 "HgN/A
6:50 am55 °FPassing clouds.7 mph88%29.92 "HgN/A
6:20 am55 °FCool.6 mph88%29.92 "HgN/A
5:50 am55 °FCool.6 mph88%29.92 "HgN/A
5:20 am55 °FCool.5 mph88%29.92 "HgN/A
4:50 am55 °FPassing clouds.5 mph88%29.92 "HgN/A
4:20 am55 °FLight rain. Mostly cloudy.3 mph88%29.92 "Hg6 mi
3:50 am57 °FPartly cloudy.9 mph82%29.92 "HgN/A
3:20 am57 °FPassing clouds.7 mph82%29.92 "HgN/A
2:50 am57 °FPartly cloudy.5 mph82%29.92 "HgN/A
2:20 am57 °FLight rain. Passing clouds.5 mph88%29.92 "HgN/A
1:50 am59 °FPartly cloudy.3 mph77%29.92 "HgN/A
1:20 am59 °FLight rain. Mostly cloudy.5 mph77%29.92 "HgN/A
12:50 am59 °FPassing clouds.8 mph82%29.92 "HgN/A
12:20 am59 °FCool.7 mph77%29.92 "HgN/A
11:50 pm
Mon, Jul 16
59 °FCool.6 mph77%29.92 "HgN/A
11:20 pm59 °FPassing clouds.7 mph77%29.92 "HgN/A
10:50 pm61 °FPassing clouds.2 mph68%29.92 "HgN/A
10:20 pm61 °FPassing clouds.3 mph72%29.92 "HgN/A
9:50 pm61 °FPassing clouds.3 mph72%29.92 "HgN/A
9:20 pm61 °FCool.10 mph72%29.92 "HgN/A
8:50 pm63 °FMild.7 mph68%29.92 "HgN/A
8:20 pm63 °FMild.10 mph68%29.89 "HgN/A
7:50 pm64 °FBroken clouds.7 mph64%29.89 "HgN/A
6:50 pm64 °FMild.7 mph60%29.89 "HgN/A
6:20 pm66 °FPassing clouds.8 mph56%29.89 "HgN/A
5:50 pm66 °FPassing clouds.6 mph56%29.89 "HgN/A
5:20 pm68 °FPassing clouds.6 mph53%29.89 "HgN/A
4:50 pm66 °FScattered clouds.7 mph56%29.89 "HgN/A
4:20 pm66 °FMild.6 mph56%29.89 "HgN/A
Weather by CustomWeather, © 2018

See weather overview